Regional Weather Roundup
Issued by NWS

Home | Current Version | Previous Version | Graphics & Text | Print | Product List | Glossary On
Versions: 1 2 3 4 5 6 7 8 9 10 11 12 13 14 15 16 17 18 19 20 21 22 23 24 25 26 27
000
ASUS45 KTFX 281810
RWRMT
MONTANA REGIONAL WEATHER ROUNDUP
NATIONAL WEATHER SERVICE GREAT FALLS MT
1200 PM MDT THU JUL 28 2016

NOTE: "FAIR" INDICATES FEW OR NO CLOUDS BELOW 12000 FEET WITH NO
SIGNIFICANT WEATHER AND/OR OBSTRUCTIONS TO VISIBILITY.

MTZ001>007-043-281900-
WEST OF THE DIVIDE

CITY           SKY/WX    TMP DP  RH WIND       PRES   REMARKS
KALISPELL      SUNNY     76  53  44 E12       30.15F
MISSOULA       SUNNY     81  52  36 CALM      30.16F
BUTTE          SUNNY     77  44  30 N7        30.26F
MULLAN PASS    SUNNY     70  47  43 CALM      30.31S
ANACONDA         N/A     73  52  46 NE8       30.22S
EUREKA           N/A     73  54  49 CALM      30.17F
HAMILTON         N/A     75  52  43 N5        30.17F
LIBBY            N/A     81  52  36 NW3       30.14F
PLAINS           N/A     81  54  39 CALM      30.12F
RONAN            N/A     77  55  46 W1        30.20S
$$

MTZ008-052>055-281900-
SOUTHWEST MONTANA

CITY           SKY/WX    TMP DP  RH WIND       PRES   REMARKS
BOZEMAN        SUNNY     75  53  46 NW3       30.21F
DILLON         SUNNY     72  53  51 CALM      30.23F
W YELLOWSTONE  SUNNY     73  37  27 NE6       30.31F
ENNIS          SUNNY     75  43  31 VRB6      30.29S
THREE FORKS      N/A     77  20  12 CALM      30.18F
TWIN BRIDGES     N/A     74  50  42 S3        30.19F
$$

MTZ009-010-012-014-046-048-049-054-281900-
EAST SLOPES AND CENTRAL MONTANA

CITY           SKY/WX    TMP DP  RH WIND       PRES   REMARKS
CUT BANK       PTSUNNY   73  52  47 MISG      30.19F
GREAT FALLS    SUNNY     76  49  38 NE6       30.19S
HELENA         SUNNY     78  52  40 VRB3      30.17F
CHOTEAU          N/A     77  48  36 VRB6      30.22S
CONRAD           N/A     77  59  53 S3        30.20S
$$

MTZ011-013-016-021-045-047-050-051-281900-
NORTH CENTRAL MONTANA

CITY           SKY/WX    TMP DP  RH WIND       PRES   REMARKS
HAVRE          MOSUNNY   76  57  51 E6        30.17S
N BAR RANCH      N/A     72  52  49 E13G20    30.25F
CHINOOK          N/A     73  57  56 E8        30.17S
$$

MTZ017>020-022>027-061-062-281900-
NORTHEAST MONTANA

CITY           SKY/WX    TMP DP  RH WIND       PRES   REMARKS
GLASGOW        PTSUNNY   74  58  57 VRB3      30.17S
JORDAN           N/A     66  59  78 SE6       30.20R
SIDNEY         CLOUDY    74  58  57 E8        30.16S
WOLF POINT     MOSUNNY   76  57  51 E10G17    30.17S
PLENTYWOOD       N/A     72  54  53 CALM      30.18S
SCOBEY           N/A     69  50  50 NE1       30.17S
$$

MTZ028>42-056>058-281900-
SOUTHCENTRAL AND SOUTHEAST MONTANA

CITY           SKY/WX    TMP DP  RH WIND       PRES   REMARKS
BAKER          PTSUNNY   73  60  63 N7        30.16F
BILLINGS       MOSUNNY   72  57  59 NE8       30.20F
LIVINGSTON     SUNNY     76  48  37 CALM      30.21F
MILES CITY     CLOUDY    68  59  73 VRB7      30.17S
EKALAKA          N/A     67  58  72 N8        30.14S
FORSYTH          N/A     72  59  64 NW5       30.17S
LAUREL           N/A     72  56  57 NE3       30.18S
ROUNDUP          N/A     72  55  54 CALM      30.11S
$$

REGIONAL REPORTS...DAKOTAS

CITY           SKY/WX    TMP DP  RH WIND       PRES   REMARKS
WILLISTON      MOSUNNY   76  53  44 NE10      30.17S
MINOT          PTSUNNY   74  52  46 N9        30.16F
DICKINSON      CLOUDY    62  59  90 E12       30.16S
CROSBY         PTSUNNY   72  55  56 SE3       30.20S
BISMARCK       CLOUDY    71  56  58 E7        30.15S
GRAND FORKS    MOSUNNY   74  57  55 N10       30.11F
FARGO          SUNNY     77  61  57 N5        30.08F
BUFFALO SD       N/A     71  62  73 VRB3      30.09F
RAPID CITY     CLOUDY    70  58  65 N6        30.12F
$$

REGIONAL REPORTS...WYOMING/IDAHO/WASHINGTON

CITY           SKY/WX    TMP DP  RH WIND       PRES   REMARKS
GILLETTE       MOSUNNY   68  58  70 N10       30.22S
SHERIDAN       PTSUNNY   74  54  49 N9        30.21F
BUFFALO WY     MOSUNNY   71  53  52 N9        30.26F
CODY           SUNNY     72  52  49 N7        30.25F
YELLOWSTONE LA   N/A     67  45  45 MISG      30.40S
IDAHO FALLS    SUNNY     82  45  27 NE6       30.18S
SALMON         SUNNY     79  48  34 N3        30.14F
BOISE          SUNNY     86  48  26 NW9       30.08S
SPOKANE        MOSUNNY   84  50  30 NE7       30.10F
$$

REGIONAL REPORTS...ALBERTA

CITY           SKY/WX    TMP DP  RH WIND       PRES   REMARKS
EDMONTON       SUNNY     72  57  60 S7        30.12S
CALGARY        MOSUNNY   73  55  53 S6        30.18S
LETHBRIDGE     PTSUNNY   72  59  64 VRB2      30.16F
MEDICINE HAT   MOSUNNY   88  55  33 VRB7      30.13F
WATERTON GATE    N/A     73  54  49 NE3         N/A
CARDSTON         N/A     73  55  53 SW2         N/A
$$

REGIONAL REPORTS...SASKATCHEWAN

CITY           SKY/WX    TMP DP  RH WIND       PRES   REMARKS
SWIFT CURRENT  SUNNY     73  54  49 W3        30.17S
REGINA         MOSUNNY   72  57  60 SW7       30.17S
SASKATOON      MOSUNNY   77  52  41 SW14      30.14F
CYPRESS HILLS    N/A     72  50  46 S6          N/A
VAL MARIE        N/A     73  54  49 SW3         N/A
ROCKGLEN         N/A     70  50  49 SE6         N/A
ASSINIBOIA       N/A     66  59  77 SW7         N/A
$$




USA.gov is the U.S. government's official web portal to all federal, state and local government web resources and services.